This demonstration page uses our WeatherBlox Daily Observations layout. Learn more.

Left ArrowRight Arrow

36.17497, -115.13722

Hourly Observations for September 11, 2017

Temp ( °F °C ) Dew Point ( °F °C ) Humidity (%) Winds ( mph kmh ) Pressure ( in mb ) Visibility ( mi km ) Precip ( " mm )
12:53 am 00:53 Clear 83 28.3 56 13.3 40 40 W 5 7 29.94 1014 10 16 0.00 0.00
1:53 am 01:53 Clear 83 28.3 56 13.3 40 40 NW 3 6 29.94 1014 10 16 0.00 0.00
2:53 am 02:53 Clear 82 27.8 56 13.3 41 41 SE 5 7 29.95 1014 10 16 0.00 0.00
3:53 am 03:53 Clear 84 28.9 52 11.1 33 33 N 3 6 29.94 1014 10 16 0.00 0.00
4:53 am 04:53 Clear 82 27.8 56 13.3 41 41 WSW 5 7 29.95 1014 10 16 0.00 0.00
5:53 am 05:53 Clear 80 26.7 59 15 49 49 SSE 3 6 29.96 1014 10 16 0.00 0.00
6:53 am 06:53 Sunny 82 27.8 57 13.9 42 42 Calm 29.98 1015 10 16 0.00 0.00
7:53 am 07:53 Sunny 84 28.9 54 12.2 36 36 N 5 7 29.98 1015 10 16 0.00 0.00
8:53 am 08:53 Sunny 89 31.7 52 11.1 28 28 N 8 13 29.98 1015 10 16 0.00 0.00
9:53 am 09:53 Sunny 91 32.8 51 10.6 26 26 Calm 29.98 1015 10 16 0.00 0.00
10:53 am 10:53 Sunny 94 34.4 49 9.4 21 21 SE 7 11 29.97 1015 10 16 0.00 0.00
11:53 am 11:53 Sunny 97 36.1 49 9.4 20 20 SE 13 20 29.96 1015 10 16 0.00 0.00
12:53 pm 12:53 Sunny 97 36.1 50 10 20 20 SSE 8 13 29.94 1014 10 16 0.00 0.00
1:53 pm 13:53 Sunny 99 37.2 50 10 19 19 E 6 9 29.91 1013 10 16 0.00 0.00
2:53 pm 14:53 Sunny 99 37.2 50 10 19 19 VRB 5 7 29.88 1012 10 16 0.00 0.00
3:53 pm 15:53 Sunny 100 37.8 48 8.9 17 17 VRB 5 7 29.87 1011 10 16 0.00 0.00
4:53 pm 16:53 Sunny 99 37.2 48 8.9 18 18 VRB 5 7 29.85 1011 10 16 0.00 0.00
5:53 pm 17:53 Sunny 98 36.7 49 9.4 19 19 SSW 5 7 29.85 1011 10 16 0.00 0.00
6:53 pm 18:53 Sunny 97 36.1 50 10 20 20 S 3 6 29.86 1011 10 16 0.00 0.00
7:53 pm 19:53 Clear 97 36.1 51 10.6 21 21 SW 5 7 29.87 1011 10 16 0.00 0.00
8:53 pm 20:53 Clear 94 34.4 52 11.1 24 24 SW 5 7 29.87 1012 10 16 0.00 0.00
9:53 pm 21:53 Clear 92 33.3 54 12.2 28 28 W 5 7 29.88 1012 10 16 0.00 0.00
10:53 pm 22:53 Mostly Clear 89 31.7 56 13.3 33 33 NE 3 6 29.89 1012 10 16 0.00 0.00
11:53 pm 23:53 Mostly Cloudy 89 31.7 57 13.9 34 34 Calm 29.89 1012 10 16 0.00 0.00

Powered by AerisWeather